Time,TemperatureF,DewpointF,PressureIn,WindDirection,WindDirectionDegrees,WindSpeedMPH,WindSpeedGustMPH,Humidity,HourlyPrecipIn,Conditions,Clouds,dailyrainin,SoftwareType,DateUTC
2013-03-25 00:31:00,29.0,24.8,29.51,North,360,6.0,29.0,84,0.00,,,-99.99,Weather View 32 v60,2013-03-25 04:31:00,
2013-03-25 00:40:00,29.0,24.8,29.51,ENE,67,3.0,24.0,84,0.00,,,-99.99,Weather View 32 v60,2013-03-25 04:40:00,
2013-03-25 00:41:00,29.0,25.1,29.52,East,90,8.0,24.0,85,0.00,,,-99.99,Weather View 32 v60,2013-03-25 04:41:00,
2013-03-25 00:51:00,29.0,25.1,29.51,NE,45,8.0,26.0,85,0.00,,,-99.99,Weather View 32 v60,2013-03-25 04:51:00,
2013-03-25 01:01:00,29.0,25.1,29.51,NE,45,11.0,26.0,85,0.00,,,-99.99,Weather View 32 v60,2013-03-25 05:01:00,
2013-03-25 01:11:00,29.0,25.1,29.51,SSE,157,4.0,26.0,85,0.00,,,-99.99,Weather View 32 v60,2013-03-25 05:11:00,
2013-03-25 01:16:00,29.0,25.1,29.51,North,360,7.0,26.0,85,0.00,,,-99.99,Weather View 32 v60,2013-03-25 05:16:00,
2013-03-25 01:21:00,29.0,25.1,29.51,East,90,13.0,26.0,85,0.00,,,-99.99,Weather View 32 v60,2013-03-25 05:21:00,
2013-03-25 01:31:00,29.0,25.1,29.50,East,90,14.0,26.0,85,0.00,,,-99.99,Weather View 32 v60,2013-03-25 05:31:00,
2013-03-25 01:36:00,29.0,25.1,29.50,East,90,12.0,26.0,85,0.00,,,-99.99,Weather View 32 v60,2013-03-25 05:36:00,
2013-03-25 01:51:00,29.0,25.3,29.50,SE,135,3.0,22.0,86,0.00,,,-99.99,Weather View 32 v60,2013-03-25 05:51:00,
2013-03-25 02:01:00,29.0,25.3,29.49,NE,45,11.0,22.0,86,0.00,,,-99.99,Weather View 32 v60,2013-03-25 06:01:00,
2013-03-25 02:06:00,29.0,25.6,29.49,North,360,2.0,22.0,87,0.00,,,-99.99,Weather View 32 v60,2013-03-25 06:06:00,
2013-03-25 02:11:00,29.0,25.6,29.49,East,90,0.0,22.0,87,0.00,,,-99.99,Weather View 32 v60,2013-03-25 06:11:00,
2013-03-25 02:16:00,29.0,25.6,29.49,NE,45,10.0,22.0,87,0.00,,,-99.99,Weather View 32 v60,2013-03-25 06:16:00,
2013-03-25 02:26:00,29.0,25.6,29.49,North,360,4.0,22.0,87,0.00,,,-99.99,Weather View 32 v60,2013-03-25 06:26:00,
2013-03-25 02:31:00,29.0,25.6,29.49,NE,45,10.0,28.0,87,0.00,,,-99.99,Weather View 32 v60,2013-03-25 06:31:00,
2013-03-25 02:41:00,29.0,25.9,29.49,North,360,9.0,28.0,88,0.00,,,-99.99,Weather View 32 v60,2013-03-25 06:41:00,
2013-03-25 03:42:00,29.0,25.9,29.48,NE,45,14.0,26.0,88,0.00,,,-99.99,Weather View 32 v60,2013-03-25 07:42:00,
2013-03-25 04:01:00,29.0,26.2,29.47,NE,45,10.0,26.0,89,0.00,,,-99.99,Weather View 32 v60,2013-03-25 08:01:00,
2013-03-25 04:06:00,29.0,26.2,29.47,SSW,202,0.0,26.0,89,0.00,,,-99.99,Weather View 32 v60,2013-03-25 08:06:00,
2013-03-25 04:16:00,29.0,26.4,29.47,NE,45,10.0,26.0,90,0.00,,,-99.99,Weather View 32 v60,2013-03-25 08:16:00,
2013-03-25 04:21:00,29.0,26.4,29.47,NNE,22,17.0,26.0,90,0.00,,,-99.99,Weather View 32 v60,2013-03-25 08:21:00,
2013-03-25 04:26:00,29.0,26.4,29.47,NNE,22,9.0,26.0,90,0.00,,,-99.99,Weather View 32 v60,2013-03-25 08:26:00,
2013-03-25 04:36:00,29.0,26.2,29.46,NE,45,14.0,26.0,89,0.00,,,-99.99,Weather View 32 v60,2013-03-25 08:36:00,
2013-03-25 04:41:00,29.0,26.2,29.46,East,90,17.0,26.0,89,0.00,,,-99.99,Weather View 32 v60,2013-03-25 08:41:00,
2013-03-25 05:01:00,29.0,25.9,29.46,NNE,22,10.0,27.0,88,0.00,,,-99.99,Weather View 32 v60,2013-03-25 09:01:00,
2013-03-25 05:16:00,29.0,26.2,29.46,NE,45,7.0,27.0,89,0.00,,,-99.99,Weather View 32 v60,2013-03-25 09:16:00,
2013-03-25 05:21:00,29.0,26.2,29.46,East,90,5.0,27.0,89,0.00,,,-99.99,Weather View 32 v60,2013-03-25 09:21:00,
2013-03-25 05:26:00,29.0,26.2,29.46,NE,45,3.0,27.0,89,0.00,,,-99.99,Weather View 32 v60,2013-03-25 09:26:00,
2013-03-25 05:41:00,28.0,25.4,29.46,East,90,8.0,27.0,90,0.00,,,-99.99,Weather View 32 v60,2013-03-25 09:41:00,
2013-03-25 05:46:00,28.0,25.4,29.46,East,90,10.0,27.0,90,0.00,,,-99.99,Weather View 32 v60,2013-03-25 09:46:00,
2013-03-25 06:06:00,28.0,25.7,29.47,NNE,22,12.0,24.0,91,0.00,,,-99.99,Weather View 32 v60,2013-03-25 10:06:00,
2013-03-25 06:11:00,29.0,26.7,29.47,East,90,18.0,24.0,91,0.00,,,-99.99,Weather View 32 v60,2013-03-25 10:11:00,
2013-03-25 06:26:00,29.0,26.7,29.47,NE,45,12.0,30.0,91,0.00,,,-99.99,Weather View 32 v60,2013-03-25 10:26:00,
2013-03-25 06:31:00,29.0,26.7,29.47,East,90,7.0,30.0,91,0.00,,,-99.99,Weather View 32 v60,2013-03-25 10:31:00,
2013-03-25 06:44:00,29.0,27.0,29.47,NE,45,8.0,30.0,92,0.00,,,-99.99,Weather View 32 v60,2013-03-25 10:44:00,
2013-03-25 06:56:00,29.0,27.0,29.47,North,360,8.0,30.0,92,0.00,,,-99.99,Weather View 32 v60,2013-03-25 10:56:00,
2013-03-25 07:06:00,29.0,27.0,29.47,NE,45,15.0,30.0,92,0.00,,,-99.99,Weather View 32 v60,2013-03-25 11:06:00,
2013-03-25 07:16:00,29.0,27.0,29.48,NE,45,13.0,30.0,92,0.00,,,-99.99,Weather View 32 v60,2013-03-25 11:16:00,
2013-03-25 07:21:00,29.0,27.0,29.48,NE,45,6.0,30.0,92,0.00,,,-99.99,Weather View 32 v60,2013-03-25 11:21:00,
2013-03-25 07:26:00,29.0,27.0,29.48,East,90,6.0,30.0,92,0.00,,,-99.99,Weather View 32 v60,2013-03-25 11:26:00,
2013-03-25 07:31:00,29.0,27.0,29.48,NE,45,13.0,30.0,92,0.00,,,-99.99,Weather View 32 v60,2013-03-25 11:31:00,
2013-03-25 07:44:00,28.0,26.0,29.49,East,90,8.0,30.0,92,0.00,,,-99.99,Weather View 32 v60,2013-03-25 11:44:00,
2013-03-25 07:51:00,28.0,26.0,29.49,SE,135,8.0,30.0,92,0.00,,,-99.99,Weather View 32 v60,2013-03-25 11:51:00,
2013-03-25 08:06:00,28.0,26.0,29.50,ENE,67,12.0,27.0,92,0.00,,,-99.99,Weather View 32 v60,2013-03-25 12:06:00,
2013-03-25 08:26:00,29.0,27.0,29.51,NE,45,13.0,27.0,92,0.00,,,-99.99,Weather View 32 v60,2013-03-25 12:26:00,
2013-03-25 08:31:00,29.0,27.0,29.51,NE,45,13.0,27.0,92,0.00,,,-99.99,Weather View 32 v60,2013-03-25 12:31:00,
2013-03-25 08:36:00,29.0,27.0,29.51,North,360,10.0,25.0,92,0.00,,,-99.99,Weather View 32 v60,2013-03-25 12:36:00,
2013-03-25 08:45:00,29.0,26.7,29.51,NE,45,15.0,27.0,91,0.00,,,-99.99,Weather View 32 v60,2013-03-25 12:45:00,
2013-03-25 08:56:00,29.0,26.7,29.51,NE,45,8.0,27.0,91,0.00,,,-99.99,Weather View 32 v60,2013-03-25 12:56:00,
2013-03-25 09:01:00,29.0,26.7,29.51,SE,135,11.0,27.0,91,0.00,,,-99.99,Weather View 32 v60,2013-03-25 13:01:00,
2013-03-25 09:11:00,30.0,27.4,29.53,North,360,5.0,27.0,90,0.00,,,-99.99,Weather View 32 v60,2013-03-25 13:11:00,
2013-03-25 09:26:00,30.0,27.4,29.53,ENE,67,10.0,27.0,90,0.00,,,-99.99,Weather View 32 v60,2013-03-25 13:26:00,
2013-03-25 09:31:00,30.0,27.4,29.52,NNE,22,16.0,30.0,90,0.00,,,-99.99,Weather View 32 v60,2013-03-25 13:31:00,
2013-03-25 09:45:00,30.0,27.4,29.53,NNE,22,7.0,33.0,90,0.00,,,-99.99,Weather View 32 v60,2013-03-25 13:45:00,
2013-03-25 10:11:00,31.0,27.9,29.53,NE,45,8.0,33.0,88,0.00,,,-99.99,Weather View 32 v60,2013-03-25 14:11:00,
2013-03-25 10:21:00,31.0,27.9,29.53,NNE,22,1.0,33.0,88,0.00,,,-99.99,Weather View 32 v60,2013-03-25 14:21:00,
2013-03-25 10:46:00,32.0,28.6,29.54,North,360,8.0,31.0,87,0.00,,,-99.99,Weather View 32 v60,2013-03-25 14:46:00,
2013-03-25 11:01:00,32.0,28.0,29.55,North,360,12.0,31.0,85,0.00,,,-99.99,Weather View 32 v60,2013-03-25 15:01:00,
2013-03-25 11:11:00,32.0,28.0,29.54,East,90,4.0,31.0,85,0.00,,,-99.99,Weather View 32 v60,2013-03-25 15:11:00,
2013-03-25 11:31:00,33.0,27.5,29.54,NE,45,10.0,27.0,80,0.00,,,-99.99,Weather View 32 v60,2013-03-25 15:31:00,
2013-03-25 11:36:00,34.0,28.2,29.54,ENE,67,5.0,24.0,79,0.00,,,-99.99,Weather View 32 v60,2013-03-25 15:36:00,
2013-03-25 11:46:00,34.0,28.5,29.55,NE,45,10.0,31.0,80,0.00,,,-99.99,Weather View 32 v60,2013-03-25 15:46:00,
2013-03-25 12:01:00,34.0,27.9,29.55,ENE,67,10.0,31.0,78,0.00,,,-99.99,Weather View 32 v60,2013-03-25 16:01:00,
2013-03-25 12:06:00,34.0,27.9,29.55,ENE,67,10.0,31.0,78,0.00,,,-99.99,Weather View 32 v60,2013-03-25 16:06:00,
2013-03-25 12:11:00,34.0,27.5,29.55,NE,45,7.0,31.0,77,0.00,,,-99.99,Weather View 32 v60,2013-03-25 16:11:00,
2013-03-25 12:36:00,35.0,27.5,29.55,NNE,22,19.0,31.0,74,0.00,,,-99.99,Weather View 32 v60,2013-03-25 16:36:00,
2013-03-25 12:41:00,35.0,27.5,29.55,North,360,12.0,24.0,74,0.00,,,-99.99,Weather View 32 v60,2013-03-25 16:41:00,
2013-03-25 12:47:00,35.0,27.9,29.55,NNE,22,13.0,24.0,75,0.00,,,-99.99,Weather View 32 v60,2013-03-25 16:47:00,
2013-03-25 12:56:00,35.0,27.5,29.56,North,360,8.0,24.0,74,0.00,,,-99.99,Weather View 32 v60,2013-03-25 16:56:00,
2013-03-25 13:11:00,35.0,27.9,29.56,South,180,3.0,24.0,75,0.00,,,-99.99,Weather View 32 v60,2013-03-25 17:11:00,
2013-03-25 13:21:00,35.0,28.2,29.56,ENE,67,10.0,24.0,76,0.00,,,-99.99,Weather View 32 v60,2013-03-25 17:21:00,
2013-03-25 13:31:00,35.0,27.5,29.56,NE,45,21.0,27.0,74,0.00,,,-99.99,Weather View 32 v60,2013-03-25 17:31:00,
2013-03-25 13:41:00,35.0,27.2,29.57,NE,45,13.0,27.0,73,0.00,,,-99.99,Weather View 32 v60,2013-03-25 17:41:00,
2013-03-25 13:47:00,35.0,27.2,29.57,NE,45,14.0,27.0,73,0.00,,,-99.99,Weather View 32 v60,2013-03-25 17:47:00,
2013-03-25 14:01:00,36.0,27.8,29.57,NE,45,14.0,27.0,72,0.00,,,-99.99,Weather View 32 v60,2013-03-25 18:01:00,
2013-03-25 14:11:00,36.0,27.2,29.57,NNE,22,13.0,27.0,70,0.00,,,-99.99,Weather View 32 v60,2013-03-25 18:11:00,
2013-03-25 14:21:00,36.0,27.8,29.57,NE,45,9.0,28.0,72,0.00,,,-99.99,Weather View 32 v60,2013-03-25 18:21:00,
2013-03-25 14:26:00,36.0,28.8,29.57,North,360,14.0,28.0,75,0.00,,,-99.99,Weather View 32 v60,2013-03-25 18:26:00,
2013-03-25 14:48:00,35.0,30.7,29.57,North,360,22.0,28.0,84,0.00,,,-99.99,Weather View 32 v60,2013-03-25 18:48:00,
2013-03-25 15:01:00,34.0,30.5,29.57,North,360,19.0,28.0,87,0.00,,,-99.99,Weather View 32 v60,2013-03-25 19:01:00,
2013-03-25 15:26:00,33.0,30.9,29.57,North,360,19.0,31.0,92,0.00,,,-99.99,Weather View 32 v60,2013-03-25 19:26:00,
2013-03-25 15:41:00,34.0,31.9,29.58,North,360,9.0,31.0,92,0.00,,,-99.99,Weather View 32 v60,2013-03-25 19:41:00,
2013-03-25 15:49:00,34.0,31.9,29.58,NE,45,19.0,31.0,92,0.00,,,-99.99,Weather View 32 v60,2013-03-25 19:49:00,
2013-03-25 16:11:00,36.0,30.4,29.58,North,360,11.0,31.0,80,0.00,,,-99.99,Weather View 32 v60,2013-03-25 20:11:00,
2013-03-25 16:21:00,35.0,32.4,29.59,North,360,13.0,31.0,90,0.00,,,-99.99,Weather View 32 v60,2013-03-25 20:21:00,
2013-03-25 16:36:00,34.0,31.6,29.59,NE,45,10.0,31.0,91,0.00,,,-99.99,Weather View 32 v60,2013-03-25 20:36:00,
2013-03-25 16:46:00,34.0,31.1,29.58,NNE,22,14.0,31.0,89,0.00,,,-99.99,Weather View 32 v60,2013-03-25 20:46:00,
2013-03-25 17:11:00,34.0,31.9,29.60,North,360,30.0,33.0,92,0.00,,,-99.99,Weather View 32 v60,2013-03-25 21:11:00,
2013-03-25 17:21:00,33.0,30.9,29.60,North,360,17.0,33.0,92,0.00,,,-99.99,Weather View 32 v60,2013-03-25 21:21:00,
2013-03-25 17:36:00,33.0,31.2,29.61,North,360,16.0,33.0,93,0.00,,,-99.99,Weather View 32 v60,2013-03-25 21:36:00,
2013-03-25 17:50:00,33.0,30.9,29.61,North,360,29.0,37.0,92,0.00,,,-99.99,Weather View 32 v60,2013-03-25 21:50:00,
2013-03-25 17:56:00,33.0,30.9,29.61,North,360,23.0,37.0,92,0.00,,,-99.99,Weather View 32 v60,2013-03-25 21:56:00,
2013-03-25 18:01:00,33.0,30.9,29.63,North,360,21.0,37.0,92,0.00,,,-99.99,Weather View 32 v60,2013-03-25 22:01:00,
2013-03-25 18:11:00,33.0,31.2,29.63,NNE,22,20.0,37.0,93,0.00,,,-99.99,Weather View 32 v60,2013-03-25 22:11:00,
2013-03-25 18:26:00,33.0,31.2,29.64,North,360,27.0,37.0,93,0.00,,,-99.99,Weather View 32 v60,2013-03-25 22:26:00,
2013-03-25 18:50:00,33.0,31.5,29.64,NNE,22,17.0,34.0,94,0.00,,,-99.99,Weather View 32 v60,2013-03-25 22:50:00,
2013-03-25 18:56:00,33.0,31.5,29.65,North,360,20.0,38.0,94,0.00,,,-99.99,Weather View 32 v60,2013-03-25 22:56:00,
2013-03-25 19:11:00,33.0,31.2,29.67,North,360,18.0,38.0,93,0.00,,,-99.99,Weather View 32 v60,2013-03-25 23:11:00,
2013-03-25 19:21:00,33.0,31.2,29.67,North,360,16.0,38.0,93,0.00,,,-99.99,Weather View 32 v60,2013-03-25 23:21:00,
2013-03-25 19:36:00,33.0,31.2,29.67,North,360,21.0,38.0,93,0.00,,,-99.99,Weather View 32 v60,2013-03-25 23:36:00,
2013-03-25 19:41:00,33.0,30.9,29.68,North,360,22.0,38.0,92,0.00,,,-99.99,Weather View 32 v60,2013-03-25 23:41:00,
2013-03-25 19:51:00,33.0,30.9,29.69,NE,45,17.0,38.0,92,0.00,,,-99.99,Weather View 32 v60,2013-03-25 23:51:00,
2013-03-25 20:01:00,33.0,31.2,29.69,NNE,22,10.0,35.0,93,0.00,,,-99.99,Weather View 32 v60,2013-03-26 00:01:00,
2013-03-25 20:06:00,33.0,31.2,29.69,North,360,12.0,35.0,93,0.00,,,-99.99,Weather View 32 v60,2013-03-26 00:06:00,
2013-03-25 20:26:00,34.0,31.6,29.71,NE,45,11.0,32.0,91,0.00,,,-99.99,Weather View 32 v60,2013-03-26 00:26:00,
2013-03-25 20:36:00,34.0,31.6,29.71,NNE,22,12.0,32.0,91,0.00,,,-99.99,Weather View 32 v60,2013-03-26 00:36:00,
2013-03-25 20:46:00,33.0,30.9,29.71,North,360,9.0,28.0,92,0.00,,,-99.99,Weather View 32 v60,2013-03-26 00:46:00,
2013-03-25 20:52:00,33.0,30.9,29.71,NNE,22,13.0,28.0,92,0.00,,,-99.99,Weather View 32 v60,2013-03-26 00:52:00,
2013-03-25 21:01:00,33.0,32.0,29.72,North,360,10.0,27.0,96,0.00,,,-99.99,Weather View 32 v60,2013-03-26 01:01:00,
2013-03-25 21:16:00,33.0,31.5,29.73,North,360,15.0,25.0,94,0.00,,,-99.99,Weather View 32 v60,2013-03-26 01:16:00,
2013-03-25 21:31:00,33.0,31.5,29.74,NE,45,9.0,23.0,94,0.00,,,-99.99,Weather View 32 v60,2013-03-26 01:31:00,
2013-03-25 21:51:00,33.0,30.9,29.75,NNE,22,8.0,23.0,92,0.00,,,-99.99,Weather View 32 v60,2013-03-26 01:51:00,
2013-03-25 21:56:00,33.0,30.9,29.75,NE,45,9.0,22.0,92,0.00,,,-99.99,Weather View 32 v60,2013-03-26 01:56:00,
2013-03-25 22:01:00,33.0,30.9,29.75,NE,45,10.0,22.0,92,0.00,,,-99.99,Weather View 32 v60,2013-03-26 02:01:00,
2013-03-25 22:16:00,33.0,30.7,29.75,NNE,22,6.0,20.0,91,0.00,,,-99.99,Weather View 32 v60,2013-03-26 02:16:00,
2013-03-25 22:36:00,33.0,30.9,29.76,North,360,10.0,16.0,92,0.00,,,-99.99,Weather View 32 v60,2013-03-26 02:36:00,
2013-03-25 22:51:00,33.0,31.2,29.77,North,360,9.0,16.0,93,0.00,,,-99.99,Weather View 32 v60,2013-03-26 02:51:00,
2013-03-25 23:16:00,33.0,31.5,29.77,NNE,22,10.0,18.0,94,0.00,,,-99.99,Weather View 32 v60,2013-03-26 03:16:00,
2013-03-25 23:36:00,33.0,31.2,29.77,North,360,29.0,31.0,93,0.00,,,-99.99,Weather View 32 v60,2013-03-26 03:36:00,
2013-03-25 23:46:00,33.0,31.5,29.77,North,360,15.0,36.0,94,0.00,,,-99.99,Weather View 32 v60,2013-03-26 03:46:00,
2013-03-25 23:53:00,33.0,31.5,29.78,North,360,10.0,36.0,94,0.00,,,-99.99,Weather View 32 v60,2013-03-26 03:53:00,